Regional Weather Roundup
Issued by NWS

Home | Current Version | Previous Version | Graphics & Text | Print | Product List | Glossary On
Versions: 1 2 3 4 5 6 7 8 9 10 11 12 13 14 15 16 17 18 19 20 21 22 23 24 25 26 27 28 29 30 31 32 33 34 35 36 37 38 39 40 41 42 43 44 45 46 47 48 49 50
000
ASUS43 KIND 021359
RWRIN

WEATHER ROUNDUP FOR INDIANA
NATIONAL WEATHER SERVICE INDIANAPOLIS IN
1000 AM EDT WED SEP 02 2015

NOTE: "FAIR" INDICATES FEW OR NO CLOUDS BELOW 12,000 FEET WITH NO
SIGNIFICANT WEATHER AND/OR OBSTRUCTIONS TO VISIBILITY.

* - STATION DOES NOT REPORT WEATHER SUCH AS PRECIPITATION OR FOG.

+ - STATION NOT QUALITY CONTROLLED BY THE NATIONAL WEATHER SERVICE.
    USE DATA WITH CAUTION...ESPECIALLY DEWPOINT AND RELATIVE
    HUMIDITY OBSERVATIONS.

INZ001>003-010>013-019-020-021500-
NORTHWEST INDIANA

CITY           SKY/WX    TMP DP  RH WIND       PRES   REMARKS
KNOX *+        SUNNY     73  70  88 SW6       30.09S
MONTICELLO +   SUNNY     75  72  91 SW5       30.11R
RENSSELAER +   SUNNY     77  73  88 SW6       30.11S

$$

LMZ046-743>745-021500-
SOUTHERN LAKE MICHIGAN

STATION/POSITION TIME  TEMP    WIND        PRES    WAVE
                       AIR SEA DIR/SP/G            HT
                 (UTC) (F)     (DEG/KT/KT) (MB)    (FT)
BURNS HARBOR     1300   73     200/  8/  9 1019.0R
MICHIGAN CITY    1300   73     180/  7/  7   N/A
5NW MICH CITY    1300   73 72  220/  6/  6   N/A     1

$$

INZ004-005-014>016-021>024-021500-
NORTH CENTRAL INDIANA

CITY           SKY/WX    TMP DP  RH WIND       PRES   REMARKS
GOSHEN         SUNNY     77  70  79 W8        30.09S
SOUTH BEND     SUNNY     75  69  81 SW6       30.09S
WARSAW +       SUNNY     75  70  83 W7        30.10F

$$

INZ006>009-017-018-025>027-021500-
NORTHEAST INDIANA

CITY           SKY/WX    TMP DP  RH WIND       PRES   REMARKS
ANGOLA *+      SUNNY     79  72  78 W6        30.09
FORT WAYNE     MOSUNNY   77  71  82 W7        30.11S

$$

INZ028-029-035-036-043>045-051>053-021500-
WEST CENTRAL INDIANA

CITY           SKY/WX    TMP DP  RH WIND       PRES   REMARKS
CRAWFORDSVL +  SUNNY     75  68  77 SW5       30.14S
GREENCASTLE +  SUNNY     77  66  69 CALM      30.14F
LAFAYETTE      SUNNY     75  69  81 W6        30.11S
TERRE HAUTE    SUNNY     77  70  79 SW5       30.13F

$$

INZ030>032-037>040-046>048-054>057-064-065-021500-
CENTRAL INDIANA

CITY           SKY/WX    TMP DP  RH WIND       PRES   REMARKS
ANDERSON       MOSUNNY   77  64  65 W7        30.15S
COLUMBUS       SUNNY     75  68  78 CALM      30.15S
FRANKFORT +    SUNNY     78  77  98 SW8       30.14S
INDIANAPOLIS   MOSUNNY   77  69  76 SW6       30.13S
-EAGLE CREEK   CLOUDY    77  69  76 VRB3      30.13S
KOKOMO *+      CLOUDY    79  70  73 W10       30.12S
MT COMFORT *+  SUNNY     77  72  83 W3        30.14S
SHELBYVILLE    SUNNY     77  70  79 SW5       30.14S

$$

INZ033-034-041-042-049-050-058-059-021500-
EAST CENTRAL INDIANA

CITY           SKY/WX    TMP DP  RH WIND       PRES   REMARKS
MUNCIE         MOSUNNY   76  70  82 W8        30.13S

$$

INZ060-061-067>069-081>083-085>088-021500-
SOUTHWEST INDIANA

CITY           SKY/WX    TMP DP  RH WIND       PRES   REMARKS
EVANSVILLE     SUNNY     79  69  71 SW3       30.15S
HUNTINGBURG *+ SUNNY     77  70  78 W3        30.15S

$$

INZ062-063-066-070>080-084-089>092-021500-
SOUTH CENTRAL AND SOUTHEAST INDIANA

CITY           SKY/WX    TMP DP  RH WIND       PRES   REMARKS
BLOOMINGTON    SUNNY     78  70  76 W3        30.16R
MADISON *+     SUNNY     77  70  78 CALM      30.17F
SEYMOUR +      SUNNY     77  72  83 CALM      30.14S

$$



USA.gov is the U.S. government's official web portal to all federal, state and local government web resources and services.